Regional Weather Roundup
Issued by NWS

Home | Current Version | Previous Version | Graphics & Text | Print | Product List | Glossary On
Versions: 1 2 3 4 5 6 7 8 9 10 11 12 13 14 15 16 17 18 19 20 21 22 23 24 25 26 27 28 29 30 31 32 33 34 35 36 37 38 39 40 41 42 43 44 45 46 47 48 49 50
468
ASUS44 KJAN 220503
RWRMS

MISSISSIPPI HOURLY WEATHER ROUNDUP
NATIONAL WEATHER SERVICE JACKSON MS
1200 AM CDT FRI AUG 22 2014

NOTE: "FAIR: INDICATES FEW OR NO CLOUDS BELOW 12,000 FEET WITH NO
SIGNIFICANT WEATHER AND/OR OBSTRUCTIONS TO VISIBILITY.

MSZ001>002-007>008-010>013-018>021-025>028-034>036-220600-
NORTHWEST MISSISSIPPI

CITY           SKY/WX    TMP DP  RH WIND       PRES   REMARKS
CLARKSDALE     FAIR      77  75  94 CALM      30.05F
CLEVELAND      FAIR      76  73  90 S5        30.05F
GREENWOOD      PTCLDY    76  73  91 SW5       30.06F
GREENVILLE     CLEAR     75  72  90 S5        30.06S
GRENADA        FAIR      77  72  83 CALM      30.06S
OLIVE BRANCH   CLEAR     77  77 100 S5        30.06S
OXFORD         FAIR      79  73  83 SW5       30.08F
TUNICA         CLEAR     79  73  83 S6        30.04F
$$

MSZ003>006-009-014>017-022>024-029>033-037>039-220600-
NORTHEAST MISSISSIPPI

CITY           SKY/WX    TMP DP  RH WIND       PRES   REMARKS
BELMONT        FAIR      75  74  98 CALM      30.08F
COLUMBUS AFB   MOCLDY    77  71  84 E2        30.07F
CORINTH        FAIR      75  73  94 CALM      30.06F
GOLDN TRIANGLE CLOUDY    77  70  78 S7        30.08S
STARKVILLE     FAIR      73  70  88 CALM      30.07S
TUPELO         CLEAR     78  72  81 S7        30.06F
$$

MSZ040-058-220600-
CENTRAL MISSISSIPPI

CITY           SKY/WX    TMP DP  RH WIND       PRES   REMARKS
JACKSON INTL   MOCLDY    75  73  93 CALM      30.08F
JACKSON HAWKNS MOCLDY    78  74  87 CALM      30.09S
MERIDIAN KEY   PTCLDY    74  70  87 CALM      30.09S
MERIDIAN NAS   PTCLDY    76  72  87 NW7       30.10R
RAYMOND        FAIR      75  70  83 W5        30.10S
VICKSBURG      MOCLDY    74  72  93 SE5       30.09S
$$

MSZ059>079-220600-
SOUTH MISSISSIPPI

CITY           SKY/WX    TMP DP  RH WIND       PRES   REMARKS
BROOKHAVEN     FAIR      73  73 100 CALM      30.14S
COLUMBIA       FAIR      75  73  94 MISG      30.10S FOG
HATTIESBURG    HAZE      78  73  84 S3        30.10F VSB 1/2
MCCOMB         CLOUDY    77  74  90 CALM      30.12S
NATCHEZ        CLOUDY    75  72  88 CALM      30.12S
PINE BELT      MOCLDY    75  70  83 CALM      30.11F
$$

MSZ080>082-220600-
COASTAL MISSISSIPPI

CITY           SKY/WX    TMP DP  RH WIND       PRES   REMARKS
BILOXI         PTCLDY    83  76  80 VRB2      30.09F HX  90
PASCAGOULA     CLEAR     76  75  97 CALM      30.10F
GULFPORT       PTCLDY    81  76  84 W3        30.09F
$$



USA.gov is the U.S. government's official web portal to all federal, state and local government web resources and services.